This is the latest recevied weather packets stored in our database for station/object K2MRS. If no packets are shown the sender has not sent any weather packets the latest 1 day(s).
| Time | Temp. | Humidity | Pressure | Rain* | Wind** | Luminosity | Snow |
|---|---|---|---|---|---|---|---|
| 1778028454 | 15° C | 79% | 1016.4 hPa | 0 mm | 0 m/s | 139 W/m² | - |
| 1778028148 | 15° C | 79% | 1016.3 hPa | 0 mm | 0 m/s | 141 W/m² | - |
| 1778027843 | 15° C | 78% | 1016.4 hPa | 0 mm | 0 m/s | 142 W/m² | - |
| 1778027536 | 15° C | 79% | 1016.3 hPa | 0 mm | 0 m/s | 151 W/m² | - |
| 1778027236 | 15° C | 79% | 1016.4 hPa | 0 mm | 0 m/s | 160 W/m² | - |
| 1778026937 | 15° C | 78% | 1016.4 hPa | 0 mm | 0 m/s | 167 W/m² | - |
| 1778026636 | 15° C | 79% | 1016.2 hPa | 0 mm | 0 m/s | 172 W/m² | - |
| 1778026334 | 15° C | 78% | 1016.2 hPa | 0 mm | 0 m/s | 192 W/m² | - |
| 1778026034 | 15.56° C | 79% | 1016.2 hPa | 0 mm | 0 m/s | 211 W/m² | - |
| 1778025734 | 15.56° C | 79% | 1016.1 hPa | 0 mm | 0 m/s | 234 W/m² | - |
| 1778025433 | 15.56° C | 79% | 1016.2 hPa | 0 mm | 0 m/s | 244 W/m² | - |
| 1778025130 | 15.56° C | 79% | 1016.3 hPa | 0 mm | 0 m/s | 214 W/m² | - |
| 1778024830 | 15.56° C | 79% | 1016.2 hPa | 0 mm | 0 m/s | 204 W/m² | - |
| 1778024658 | 15.56° C | 78% | 1016.3 hPa | 0 mm | 0 m/s | 193 W/m² | - |
| 1778024231 | 15.56° C | 78% | 1016.2 hPa | 0 mm | 0 m/s | 211 W/m² | - |
| 1778023930 | 15.56° C | 78% | 1016.2 hPa | 0 mm | 0 m/s | 204 W/m² | - |
| 1778023628 | 15.56° C | 79% | 1016.1 hPa | 0 mm | 0 m/s | 221 W/m² | - |
| 1778023328 | 15.56° C | 79% | 1016.2 hPa | 0 mm | 0 m/s | 225 W/m² | - |
| 1778023028 | 15.56° C | 79% | 1016.2 hPa | 0 mm | 0 m/s | 225 W/m² | - |
| 1778022856 | 16.11° C | 79% | 1016.2 hPa | 0 mm | 0 m/s | 199 W/m² | - |
| 1778022428 | 16.11° C | 78% | 1016.2 hPa | 0 mm | 0 m/s | 185 W/m² | - |
| 1778022128 | 16.11° C | 78% | 1016.3 hPa | 0 mm | 0 m/s | 185 W/m² | - |
| 1778021828 | 16.11° C | 77% | 1016.1 hPa | 0 mm | 0 m/s | 236 W/m² | - |
| 1778021528 | 16.11° C | 77% | 1016.2 hPa | 0 mm | 0 m/s | 229 W/m² | - |
| 1778021229 | 16.11° C | 77% | 1016.1 hPa | 0 mm | 0 m/s | 209 W/m² | - |
* Rain latest hour (hover to see other rain measurements)
** Current wind speed in m/s (hover to see current wind gust speed)